Preview of NWS' New Version of Forecast
This preview is not operational and should not be used for support decisions.

Regional Weather Roundup (RWR)

Issued by National Weather Service (NWS)

                            
000
ASUS46 KPQR 181510
RWROR 

OREGON REGIONAL WEATHER ROUNDUP
NATIONAL WEATHER SERVICE PORTLAND OR
700 AM PST MON FEB 18 2019

NOTE: "FAIR" INDICATES FEW OR NO CLOUDS BELOW 12,000 FEET WITH
NO SIGNIFICANT WEATHER AND/OR OBSTRUCTIONS TO VISIBILITY.

ORZ001>013-181600-
NORTHWEST OREGON

  
CITY           SKY/WX    TMP DP  RH WIND       PRES   REMARKS
ASTORIA        CLOUDY    34  32  92 SE5       30.39R                  
TILLAMOOK      PTCLDY    30  28  93 E3        30.42S                  
NEWPORT        CLEAR     32  32 100 E7        30.42R                  
PORTLAND       FOG       31  30  96 E3        30.42R VSB 1/4          
VANCOUVER WA   FOG       30  30 100 CALM      30.42R VSB 1/2          
SCAPPOOSE      FOG       30  27  88 N3        30.42R VSB 1/4          
HILLSBORO      FOG       28  27  96 CALM      30.40R VSB 1/4          
AURORA         FOG       27  27 100 CALM      30.42R VSB 3/4          
MCMINNVILLE    FOG       27  26  96 W3        30.40R VSB 1/4          
SALEM          CLOUDY    30  28  92 CALM      30.40R                  
CORVALLIS      FOG       30  29  96 NW3       30.41R VSB 1/4          
EUGENE         CLOUDY    32  29  88 NW5       30.40R                  
$$

ORZ021-028-181600-
SOUTHWEST OREGON

  
CITY           SKY/WX    TMP DP  RH WIND       PRES   REMARKS
NORTH BEND     CLEAR     30  30 100 SE5       30.42R                  
BROOKINGS      CLEAR     31  29  92 E3        30.33R                  
ROSEBURG       CLOUDY    33  32  96 SW3       30.40R                  
SEXTON SUMMIT  LGT SNOW  23  21  92 N8        30.20R FOG              
GRANTS PASS    FOG       28  27  93 CALM      30.38  VSB 1/4          
MEDFORD        CLOUDY    30  27  88 CALM      30.34R                  
$$

ORZ014>016-041-181600-
COLUMBIA GORGE

  
CITY           SKY/WX    TMP DP  RH WIND       PRES   REMARKS
TROUTDALE      CLOUDY    32  31  96 CALM      30.42R FOG              
HOOD RIVER     CLOUDY    32  32 100 CALM      30.39R FOG              
THE DALLES     CLOUDY    33  31  92 CALM      30.40R FOG              
$$

ORZ029>031-041-044-049-050-061>064-502-503-505>511-181600-
EASTERN OREGON

  
CITY           SKY/WX    TMP DP  RH WIND       PRES   REMARKS
MADRAS         NOT AVBL                                               
REDMOND        CLOUDY    28  25  88 NW9       30.24R                  
BEND           CLOUDY    27  23  86 NW8       30.23R                  
PRINEVILLE     CLOUDY    27  25  93 W7        30.23                   
KLAMATH FALLS  FAIR      15  12  88 SE3       30.18R                  
LAKEVIEW       FLURRIES  17  14  88 N6        30.13R                  
HERMISTON      CLOUDY    24  19  81 CALM      30.39R                  
PENDLETON      CLOUDY    24  20  84 N5        30.33R                  
JOHN DAY       CLOUDY    26  19  77 W5        30.18                   
MEACHAM        CLOUDY    19  15  84 CALM      30.18R                  
LA GRANDE      CLOUDY    25  17  72 W15       30.23R WCI  13          
BAKER CITY     CLOUDY    25  17  72 NW14      30.16R WCI  13          
BURNS          CLEAR     16  12  84 W7        30.13R                  
ROME             N/A      6   2  83 SE5       30.09R                  
ONTARIO        CLOUDY    32  20  61 NW18      30.16R WCI  20          
$$